#timestamp,LO_Frequency,Hit,StdDev 
1589652015.1,286046998.5,N
1589652035.8,286047002.2,N
1589652055.7,286047002.1,N
1589652075.5,286047002.4,N
1589652095.4,286046998.3,N
1589652115.2,286047000.8,N
1589652135.0,286046999.4,N
1589652135.9,286046999.4,N
1589652155.8,286046996.7,N
1589652175.6,286046997.6,N
1589652195.4,286046995.3,N
1589652215.3,286046994.1,N
1589652235.1,286046995.4,N
1589652255.9,286046995.4,N
1589652275.7,286046992.3,Y
1589652295.5,286046993.4,P
1589652315.4,286046996.2,N
1589652335.2,286046995.4,N
1589652355.0,286046993.3,Y
1589652355.9,286046993.3,P
1589652375.8,286047001.1,N
1589652395.6,286046998.4,N
1589652415.5,286046998.6,N
1589652435.3,286047000.8,N
1589652455.1,286047001.0,N
1589652475.9,286046998.3,N
1589652495.7,286046998.6,N
1589652515.5,286046999.1,N
1589652535.4,286046995.3,N
1589652555.2,286046999.3,N
1589652575.1,286047000.4,N
1589652576.0,286047000.4,N
1589652595.8,286047002.8,N
1589652615.6,286047001.5,N
1589652635.5,286047000.0,N
1589652655.3,286047001.1,N
1589652675.1,286047000.1,N
1589652695.9,286047001.1,N
1589652715.7,286047000.0,N
1589652735.6,286047000.4,N
1589652755.4,286047000.5,N
1589652775.2,286047001.8,N
1589652795.1,286047001.9,N
1589652796.0,286047001.9,N
1589652815.8,286047002.6,N
1589652835.6,286047001.0,N
1589652855.5,286047001.8,N
1589652875.3,286047003.8,N
1589652895.2,286047002.9,N
1589652915.9,286047004.6,N
1589652935.7,286047007.1,Y
1589652955.6,286047006.4,P
1589652975.4,286047010.4,P
1589652995.3,286047008.1,N
1589653015.1,286047004.7,N
1589653016.0,286047004.7,N
1589653035.8,286047010.5,Y
1589653055.7,286047004.0,P
1589653075.5,286047005.0,P
1589653095.4,286047007.3,P
1589653115.2,286047006.9,Y
1589653135.0,286047000.3,P
1589653135.9,286047000.3,N
1589653155.8,286047000.5,N
1589653175.6,286047000.5,N
1589653195.5,286047002.7,N
1589653215.3,286047002.7,N
1589653235.1,286047002.0,N
1589653255.9,286047001.9,N
1589653275.7,286047003.8,N
1589653295.5,286047003.0,N
1589653315.4,286047005.3,Y
1589653335.2,286047001.3,P
1589653355.0,286047001.7,P
1589653355.9,286047001.7,P
1589653375.8,286047001.5,Y
1589653395.6,286047000.8,P
1589653415.5,286047001.0,N
1589653435.3,286047001.7,P
1589653455.1,286047003.9,Y
1589653475.9,286047000.9,P
1589653495.7,286046998.2,P
1589653515.6,286046998.5,N
1589653535.4,286046996.5,N
1589653555.2,286046998.6,N
1589653575.1,286046998.3,N
1589653576.0,286046998.3,N
1589653595.8,286047000.1,N
1589653615.6,286047002.5,N
1589653635.5,286047002.7,N
1589653655.3,286046998.1,N
1589653675.1,286047001.1,N
1589653695.9,286046998.4,N
1589653715.7,286047001.0,N
1589653735.6,286047002.2,N
1589653755.4,286047001.8,N
1589653775.2,286047002.5,N
1589653795.1,286047001.5,N
1589653796.0,286047001.5,N
1589653815.8,286047002.7,N
1589653835.7,286047002.0,N
1589653855.5,286047004.3,N
1589653875.3,286047002.9,N
1589653895.2,286047003.1,N
1589653915.0,286047004.2,N
1589653915.9,286047004.2,N
1589653935.7,286047003.5,N
1589653955.6,286047001.4,N
1589653975.4,286047001.6,N
1589653995.3,286047001.5,N
1589654015.1,286047002.8,N
1589654016.0,286047002.8,N
1589654035.8,286047002.0,N
1589654055.7,286047002.4,N
1589654075.5,286047000.0,N
1589654095.4,286047000.2,N
1589654115.2,286046998.3,N
1589654135.0,286046998.7,N
1589654135.9,286046998.7,N
1589654155.8,286046999.0,N
1589654175.6,286047000.5,N
1589654195.4,286046999.9,N
1589654215.3,286047000.3,N
1589654235.1,286047000.6,N
1589654255.9,286047000.2,N
1589654275.7,286047001.1,N
1589654295.5,286046999.6,N
1589654315.4,286046996.9,N
1589654335.2,286046997.8,N
1589654355.1,286046997.5,N
1589654356.0,286046997.5,N
1589654375.8,286046999.0,N
1589654395.6,286046998.4,N
1589654415.5,286047000.4,N
1589654435.3,286047001.0,N
1589654455.1,286047002.1,N
1589654475.9,286047002.7,N
1589654495.7,286047001.4,N
1589654515.6,286047001.7,N
1589654535.4,286047001.8,N
1589654555.2,286047001.4,N
1589654575.1,286047005.8,Y
1589654576.0,286047005.8,P
1589654595.8,286047005.8,N
1589654615.7,286047004.7,N
1589654635.5,286047007.6,Y
1589654655.3,286047000.0,P
1589654675.2,286047002.7,N
1589654695.0,286047000.8,N
1589654695.9,286047000.8,N
1589654715.8,286046999.4,N
1589654735.6,286046999.2,N
1589654755.4,286046999.3,N
1589654775.3,286046999.1,N
1589654795.1,286046999.4,N
1589654796.0,286046999.4,N
1589654815.8,286046998.4,N
1589654835.7,286046998.3,N
1589654855.5,286046998.7,N
1589654875.3,286047000.3,N
1589654895.2,286046999.9,N
1589654915.0,286047002.8,N
1589654915.9,286047002.8,N
1589654935.8,286047002.7,N
1589654955.6,286047002.4,N
1589654975.4,286047004.2,N
1589654995.3,286047001.4,N
1589655015.1,286047002.7,N
1589655035.8,286047000.3,N
1589655055.7,286047001.1,N
1589655075.5,286046998.1,N
1589655095.4,286046999.0,N
1589655115.2,286046997.2,N
1589655135.0,286046998.3,N
1589655135.9,286046998.3,N
1589655155.8,286047000.4,N
1589655175.6,286047002.0,N
1589655195.4,286047001.8,N
1589655215.3,286047004.2,N
1589655235.1,286047002.6,N
1589655255.9,286047004.0,N
1589655275.7,286047003.8,N
1589655295.5,286047001.8,N
1589655315.4,286047002.6,N
1589655335.2,286047002.8,N
1589655355.0,286047002.1,N
1589655356.0,286047002.1,N
1589655375.8,286047000.3,N
1589655395.6,286047000.0,N
1589655415.5,286047000.1,N
1589655435.3,286047000.5,N
1589655455.1,286047000.1,N
1589655475.9,286047000.9,N
1589655495.7,286047002.2,N
1589655515.6,286047002.5,N
1589655535.4,286047002.5,N
1589655555.2,286047000.0,N
1589655575.1,286046998.2,N
1589655576.0,286046998.2,N
1589655595.8,286046999.4,N
